Location: Newark
(11.2914°S, 14.4718°E)
Time: 07:27:28
(UTC+00:00)

Tiros 1 despin weight - Pass Details

Date: 26 September 2019
Orbit: 593 x 643 km, 48.2° (Epoch: 20 October)

Event Time Altitude Azimuth Distance (km) Brightness Sun altitude
Rises 05:19:47 0° 223° (SW) 2,947 ? 6.6°
Reaches altitude 10° 05:22:08 10° 224° (SW) 2,037 ? 7.2°
Maximum altitude 05:26:49 78° 309° (NW) 659 ? 8.4°
Drops below altitude 10° 05:31:29 10° 36° (NE) 2,019 ? 9.5°
Sets 05:33:48 0° 37° (NE) 2,920 ? 10.1°
